| time (UTC) | temp F | wind direction | speed MPH | gust MPH | rain 1hr in | rain 24hr in | rain mn in | humidity % | barometer mb |
| 20260906010004 | 87 | 278 | 4.0 | 7.0 | 0.00 | 0.00 | 0.00 | 26 | 1019.5 |
| 20260906003002 | 88 | 281 | 9.0 | 14.0 | 0.00 | 0.00 | 0.00 | 26 | 1019.4 |
| 20260906001502 | 89 | 238 | 6.0 | 9.0 | 0.00 | 0.00 | 0.00 | 26 | 1019.4 |
| 20260906000002 | 88 | 287 | 8.0 | 11.0 | 0.00 | 0.00 | 0.00 | 27 | 1019.4 |
| 20260905233002 | 89 | 64 | 5.0 | 10.0 | 0.00 | 0.00 | 0.00 | 25 | 1019.3 |
| 20260905231503 | 89 | 314 | 9.0 | 15.0 | 0.00 | 0.00 | 0.00 | 26 | 1019.4 |
| 20260905230004 | 89 | 296 | 8.0 | 17.0 | 0.00 | 0.00 | 0.00 | 26 | 1019.4 |
| 20260905224503 | 89 | 225 | 10.0 | 15.0 | 0.00 | 0.00 | 0.00 | 26 | 1019.4 |
| 20260905220004 | 89 | 292 | 10.0 | 16.0 | 0.00 | 0.00 | 0.00 | 26 | 1019.8 |
| 20260905211502 | 89 | 271 | 9.0 | 16.0 | 0.00 | 0.00 | 0.00 | 26 | 1020.4 |
| 20260905204503 | 88 | 279 | 7.0 | 12.0 | 0.00 | 0.00 | 0.00 | 27 | 1020.7 |
| 20260905203002 | 87 | 323 | 7.0 | 13.0 | 0.00 | 0.00 | 0.00 | 28 | 1021.1 |
| 20260905201502 | 87 | 281 | 8.0 | 16.0 | 0.00 | 0.00 | 0.00 | 28 | 1021.2 |
| 20260905200002 | 87 | 271 | 10.0 | 20.0 | 0.00 | 0.00 | 0.00 | 28 | 1021.4 |
| 20260905194501 | 87 | 192 | 9.0 | 15.0 | 0.00 | 0.00 | 0.00 | 28 | 1021.4 |
| 20260905193002 | 87 | 232 | 7.0 | 13.0 | 0.00 | 0.00 | 0.00 | 29 | 1021.8 |
| 20260905191501 | 85 | 338 | 6.0 | 11.0 | 0.00 | 0.00 | 0.00 | 30 | 1021.9 |
| 20260905190005 | 85 | 265 | 7.0 | 11.0 | 0.00 | 0.00 | 0.00 | 30 | 1022.3 |
| 20260905184502 | 85 | 224 | 6.0 | 14.0 | 0.00 | 0.00 | 0.00 | 31 | 1022.4 |
| 20260905183002 | 84 | 260 | 5.0 | 14.0 | 0.00 | 0.00 | 0.00 | 32 | 1022.6 |
| 20260905180002 | 82 | 292 | 7.0 | 15.0 | 0.00 | 0.00 | 0.00 | 33 | 1023.0 |
| 20260905174501 | 81 | 276 | 8.0 | 14.0 | 0.00 | 0.00 | 0.00 | 35 | 1023.1 |
| 20260905173001 | 81 | 293 | 9.0 | 16.0 | 0.00 | 0.00 | 0.00 | 36 | 1023.3 |
| 20260905171501 | 80 | 296 | 8.0 | 15.0 | 0.00 | 0.00 | 0.00 | 38 | 1023.4 |
| 20260905170003 | 79 | 280 | 9.0 | 14.0 | 0.00 | 0.00 | 0.00 | 40 | 1023.4 |
| 20260905164500 | 78 | 169 | 11.0 | 20.0 | 0.00 | 0.00 | 0.00 | 41 | 1023.3 |
| 20260905163001 | 77 | 267 | 11.0 | 19.0 | 0.00 | 0.00 | 0.00 | 41 | 1023.3 |
| 20260905161502 | 77 | 281 | 11.0 | 16.0 | 0.00 | 0.00 | 0.00 | 43 | 1023.5 |
| 20260905160001 | 76 | 273 | 9.0 | 18.0 | 0.00 | 0.00 | 0.00 | 43 | 1023.2 |
| 20260905154501 | 75 | 269 | 11.0 | 17.0 | 0.00 | 0.00 | 0.00 | 45 | 1023.2 |
| 20260905153001 | 75 | 339 | 10.0 | 21.0 | 0.00 | 0.00 | 0.00 | 45 | 1023.1 |
| 20260905151501 | 74 | 280 | 11.0 | 17.0 | 0.00 | 0.00 | 0.00 | 46 | 1023.2 |
| 20260905144501 | 74 | 307 | 11.0 | 19.0 | 0.00 | 0.00 | 0.00 | 46 | 1023.5 |
| 20260905143001 | 73 | 277 | 9.0 | 19.0 | 0.00 | 0.00 | 0.00 | 46 | 1023.3 |
| 20260905141501 | 72 | 291 | 8.0 | 11.0 | 0.00 | 0.00 | 0.00 | 49 | 1023.2 |
| 20260905133000 | 62 | 36 | 2.0 | 4.0 | 0.00 | 0.00 | 0.00 | 73 | 1022.9 |
| 20260905130000 | 62 | 98 | 4.0 | 7.0 | 0.00 | 0.00 | 0.00 | 73 | 1022.7 |
| 20260905122959 | 62 | 74 | 4.0 | 8.0 | 0.00 | 0.00 | 0.00 | 73 | 1022.4 |
| 20260905114500 | 62 | 77 | 5.0 | 8.0 | 0.00 | 0.00 | 0.00 | 73 | 1022.0 |
| 20260905113002 | 62 | 93 | 3.0 | 6.0 | 0.00 | 0.00 | 0.00 | 72 | 1021.9 |
| 20260905111500 | 62 | 86 | 3.0 | 5.0 | 0.00 | 0.00 | 0.00 | 71 | 1021.8 |
| 20260905104459 | 63 | 90 | 3.0 | 4.0 | 0.00 | 0.00 | 0.00 | 69 | 1021.6 |
| 20260905101500 | 64 | 72 | 4.0 | 8.0 | 0.00 | 0.00 | 0.00 | 68 | 1021.3 |
| 20260905100001 | 65 | 63 | 3.0 | 7.0 | 0.00 | 0.00 | 0.00 | 67 | 1021.3 |
| 20260905094459 | 65 | 29 | 4.0 | 9.0 | 0.00 | 0.00 | 0.00 | 66 | 1021.2 |
| 20260905093000 | 65 | 86 | 8.0 | 10.0 | 0.00 | 0.00 | 0.00 | 67 | 1021.1 |
| 20260905090000 | 66 | 93 | 8.0 | 11.0 | 0.00 | 0.00 | 0.00 | 66 | 1021.3 |
| 20260905082959 | 66 | 85 | 5.0 | 9.0 | 0.00 | 0.00 | 0.00 | 65 | 1021.3 |
| 20260905081459 | 67 | 82 | 5.0 | 8.0 | 0.00 | 0.00 | 0.00 | 63 | 1021.3 |
| 20260905080000 | 67 | 30 | 4.0 | 7.0 | 0.00 | 0.00 | 0.00 | 63 | 1021.6 |
| 20260905073000 | 68 | 65 | 4.0 | 7.0 | 0.00 | 0.00 | 0.00 | 61 | 1021.5 |
| 20260905071500 | 69 | 95 | 4.0 | 6.0 | 0.00 | 0.00 | 0.00 | 60 | 1021.6 |
| 20260905070003 | 69 | 89 | 2.0 | 3.0 | 0.00 | 0.00 | 0.00 | 59 | 1021.7 |
| 20260905064502 | 69 | 65 | 1.0 | 3.0 | 0.00 | 0.00 | 0.00 | 59 | 1021.7 |
| 20260905060007 | 70 | 13 | 2.0 | 3.0 | 0.00 | 0.00 | 0.00 | 57 | 1021.6 |
| 20260905054504 | 71 | 78 | 3.0 | 5.0 | 0.00 | 0.00 | 0.00 | 57 | 1021.2 |
| 20260905053003 | 71 | 90 | 4.0 | 7.0 | 0.00 | 0.00 | 0.00 | 56 | 1021.3 |
| 20260905051504 | 71 | 46 | 4.0 | 6.0 | 0.00 | 0.00 | 0.00 | 56 | 1021.2 |
| 20260905050004 | 71 | 83 | 5.0 | 7.0 | 0.00 | 0.00 | 0.00 | 55 | 1021.3 |
| 20260905041503 | 72 | 115 | 5.0 | 8.0 | 0.00 | 0.00 | 0.00 | 54 | 1021.8 |
| 20260905040003 | 72 | 107 | 6.0 | 8.0 | 0.00 | 0.00 | 0.00 | 54 | 1021.8 |
| 20260905034503 | 72 | 87 | 8.0 | 12.0 | 0.00 | 0.00 | 0.00 | 54 | 1021.8 |
| 20260905033004 | 73 | 94 | 5.0 | 7.0 | 0.00 | 0.00 | 0.00 | 53 | 1021.8 |
| 20260905031503 | 73 | 124 | 8.0 | 12.0 | 0.00 | 0.00 | 0.00 | 53 | 1021.8 |
| 20260905030004 | 73 | 86 | 8.0 | 14.0 | 0.00 | 0.00 | 0.00 | 52 | 1021.7 |
| 20260905024504 | 74 | 107 | 7.0 | 10.0 | 0.00 | 0.00 | 0.00 | 51 | 1021.5 |
| 20260905023003 | 74 | 100 | 6.0 | 8.0 | 0.00 | 0.00 | 0.00 | 50 | 1021.1 |
| 20260905021502 | 75 | 51 | 7.0 | 11.0 | 0.00 | 0.00 | 0.00 | 50 | 1020.8 |
| 20260905020005 | 75 | 80 | 7.0 | 11.0 | 0.00 | 0.00 | 0.00 | 49 | 1020.5 |
| 20260905014503 | 76 | 80 | 7.0 | 12.0 | 0.00 | 0.00 | 0.00 | 48 | 1020.6 |
| 20260905013002 | 78 | 88 | 9.0 | 14.0 | 0.00 | 0.00 | 0.00 | 46 | 1020.7 |
| 20260905011503 | 80 | 23 | 3.0 | 5.0 | 0.00 | 0.00 | 0.00 | 41 | 1020.5 |